EW5790 Weather Reports


Display with metric or nautical units.
time (UTC)temp
F
wind
direction
speed
MPH
gust
MPH
rain 1hr
in
rain 24hr
in
rain mn
in
humidity
%
barometer
mb
20260508034531 42 321 0.0 0.0 0.00 0.00 0.00 1 1016.4
20260508033025 42 321 0.0 0.0 0.00 0.00 0.00 12 1016.5
20260508031521 43 321 0.0 0.0 0.00 0.00 0.00 12 1016.5
20260508030017 43 321 0.0 0.0 0.00 0.00 0.00 14 1016.5
20260508024522 44 321 0.0 0.0 0.00 0.00 0.00 28 1016.5
20260508023008 45 321 0.0 0.0 0.00 0.00 0.00 38 1016.2
20260508021502 46 321 0.0 0.0 0.00 0.00 0.00 46 1016.1
20260508020059 47 321 0.0 0.0 0.00 0.00 0.00 58 1015.9
20260508014555 48 321 0.0 0.0 0.00 0.00 0.00 61 1015.5
20260508013050 50 321 0.0 0.0 0.00 0.00 0.00 64 1015.3
20260508011558 51 321 0.0 0.0 0.00 0.00 0.00 67 1015.1
20260508010052 53 321 0.0 0.0 0.00 0.00 0.00 68 1014.9
20260508004551 54 321 0.0 0.0 0.00 0.01 0.00 69 1014.7
20260508003037 56 321 0.0 0.0 0.00 0.01 0.00 64 1014.6
20260508001528 59 321 0.0 0.0 0.00 0.01 0.00 58 1014.4
20260508000023 62 311 0.0 0.0 0.00 0.01 0.00 51 1014.2
20260507234520 63 327 0.0 0.0 0.00 0.03 0.00 41 1014.1
20260507233014 63 313 0.0 0.0 0.00 0.03 0.00 42 1014.2
20260507231509 64 338 0.0 0.0 0.00 0.03 0.00 42 1014.1
20260507230006 64 279 0.0 0.0 0.00 0.03 0.00 43 1014.1
20260507224504 64 323 0.0 0.0 0.00 0.04 0.00 42 1014.2
20260507223057 64 312 0.0 0.0 0.00 0.04 0.00 41 1014.2
20260507221552 65 324 0.0 0.0 0.00 0.04 0.00 41 1014.3
20260507220048 65 302 0.0 0.0 0.00 0.04 0.00 39 1014.1
20260507214543 64 242 0.0 0.0 0.00 0.06 0.00 41 1014.2
20260507213039 65 15 0.0 0.0 0.00 0.06 0.00 41 1013.9
20260507211535 65 300 0.0 0.0 0.00 0.06 0.00 42 1013.8
20260507210030 64 312 0.0 0.0 0.00 0.06 0.00 42 1013.9
20260507204526 64 332 0.0 0.0 0.00 0.07 0.00 40 1014.0
20260507203020 64 308 0.0 0.0 0.00 0.07 0.00 40 1013.7
20260507201516 64 273 0.0 0.0 0.00 0.07 0.00 42 1013.9
20260507200022 65 344 0.0 0.0 0.00 0.07 0.00 41 1014.0
20260507194507 64 336 0.0 0.0 0.00 0.07 0.00 41 1014.2
20260507193006 64 9 0.0 0.0 0.00 0.07 0.00 43 1014.3
20260507191601 64 331 0.0 0.0 0.00 0.07 0.00 42 1014.3
20260507191501 64 348 0.0 0.0 0.00 0.07 0.00 42 1014.3
20260507184551 64 355 0.0 0.0 0.00 0.07 0.00 41 1014.4
20260507183050 63 333 0.0 0.0 0.00 0.07 0.00 49 1014.3
20260507181542 63 303 0.0 0.0 0.00 0.07 0.00 46 1014.5
20260507180042 63 52 0.0 0.0 0.00 0.07 0.00 46 1014.5
20260507174538 62 337 0.0 0.0 0.00 0.07 0.00 47 1014.7
20260507173033 62 252 0.0 0.0 0.00 0.07 0.00 49 1015.0
20260507171525 63 288 0.0 0.0 0.00 0.07 0.00 47 1015.1
20260507170021 62 284 0.0 0.0 0.00 0.07 0.00 48 1015.2
20260507164520 62 302 0.0 0.0 0.00 0.09 0.00 47 1015.2
20260507163011 62 279 0.0 0.0 0.00 0.09 0.00 49 1015.5
20260507161510 60 92 0.0 0.0 0.00 0.09 0.00 54 1015.6
20260507160005 60 288 0.0 0.0 0.00 0.09 0.00 53 1015.5
20260507154559 60 28 0.0 0.0 0.00 0.15 0.00 57 1015.6
20260507153057 59 42 0.0 0.0 0.00 0.15 0.00 55 1015.8
20260507151550 59 123 0.0 0.0 0.00 0.15 0.00 56 1015.6
20260507150046 58 79 0.0 0.0 0.00 0.15 0.00 61 1015.5
20260507144548 57 103 0.0 0.0 0.00 0.22 0.00 60 1015.6
20260507143040 58 279 0.0 0.0 0.00 0.22 0.00 60 1015.5
20260507141534 57 98 0.0 0.0 0.00 0.22 0.00 66 1015.5
20260507140029 56 144 0.0 0.0 0.00 0.22 0.00 68 1015.4
20260507134526 55 100 0.0 0.0 0.00 0.31 0.00 69 1015.5
20260507133021 54 101 0.0 0.0 0.00 0.31 0.00 64 1015.5
20260507131519 52 331 0.0 0.0 0.00 0.31 0.00 49 1015.6
20260507130012 50 223 0.0 0.0 0.00 0.31 0.00 1 1015.6
20260507124508 50 305 0.0 0.0 0.00 0.45 0.00 1 1015.6
20260507123004 49 345 0.0 0.0 0.00 0.45 0.00 1 1015.5
20260507121606 47 345 0.0 0.0 0.00 0.45 0.00 1 1015.5
20260507120055 47 345 0.0 0.0 0.00 0.45 0.00 1 1015.5
20260507114551 46 345 0.0 0.0 0.00 0.56 0.00 1 1015.3
20260507113046 46 345 0.0 0.0 0.00 0.56 0.00 1 1015.2
20260507111546 46 345 0.0 0.0 0.00 0.56 0.00 1 1015.1
20260507110038 46 345 0.0 0.0 0.00 0.56 0.00 1 1014.9
20260507104533 46 345 0.0 0.0 0.00 0.71 0.00 1 1014.8
20260507103029 47 345 0.0 0.0 0.00 0.71 0.00 1 1014.6
20260507101533 47 345 0.0 0.0 0.00 0.71 0.00 1 1014.4
20260507100026 47 345 0.0 0.0 0.00 0.71 0.00 1 1014.5
20260507094516 48 345 0.0 0.0 0.00 0.83 0.00 1 1014.4
20260507093027 48 345 0.0 0.0 0.00 0.83 0.00 1 1014.5
20260507091507 49 345 0.0 0.0 0.00 0.83 0.00 1 1014.4
20260507090005 49 345 0.0 0.0 0.00 0.83 0.00 1 1014.5
20260507084559 49 345 0.0 0.0 0.00 0.85 0.00 1 1014.6
20260507083057 50 345 0.0 0.0 0.00 0.85 0.00 1 1014.6
20260507081550 50 345 0.0 0.0 0.00 0.85 0.00 1 1014.5
20260507080111 49 345 0.0 0.0 0.00 0.85 0.00 1 1014.4
20260507074545 49 345 0.0 0.0 0.00 0.93 0.00 1 1014.1
20260507073036 50 345 0.0 0.0 0.00 0.93 0.00 1 1013.9
20260507071551 50 345 0.0 0.0 0.00 0.93 0.00 1 1013.9
20260507070027 50 345 0.0 0.0 0.00 0.93 0.00 1 1014.1
20260507064523 50 345 0.0 0.0 0.00 0.93 0.00 1 1013.9
20260507063019 51 345 0.0 0.0 0.00 0.93 0.00 1 1014.1
20260507061514 51 345 0.0 0.0 0.00 0.93 0.00 1 1014.5
20260507060010 51 345 0.0 0.0 0.00 0.93 0.00 1 1014.7
20260507054506 51 345 0.0 0.0 0.00 0.97 0.00 1 1014.7
20260507053001 52 345 0.0 0.0 0.00 0.97 0.00 1 1014.6
20260507051600 52 345 0.0 0.0 0.00 0.97 0.00 1 1014.4
20260507050053 52 345 0.0 0.0 0.00 0.97 0.00 1 1014.4
20260507044550 53 345 0.0 0.0 0.00 0.98 0.00 1 1014.6
20260507043044 54 345 0.0 0.0 0.00 0.98 0.00 1 1014.8
20260507041539 54 345 0.0 0.0 0.00 0.98 0.00 1 1014.6
20260507040038 55 345 0.0 0.0 0.00 0.98 0.00 1 1014.5